#timestamp,LO_Frequency,Hit,StdDev 
1621065615.9,286047000.7,N
1621065635.7,286047000.1,N
1621065655.5,286046999.9,N
1621065675.4,286046999.9,N
1621065695.2,286047001.1,N
1621065715.0,286047000.8,N
1621065716.0,286047000.8,N
1621065735.8,286047000.5,N
1621065755.6,286047000.9,N
1621065775.5,286047000.9,N
1621065795.3,286047000.6,N
1621065815.1,286046998.2,N
1621065835.9,286046999.1,N
1621065855.7,286047000.6,N
1621065875.6,286047002.8,N
1621065895.4,286047001.2,N
1621065915.2,286046998.1,N
1621065935.1,286046998.8,N
1621065936.0,286046998.8,N
1621065955.8,286046998.3,N
1621065975.6,286046994.9,Y
1621065995.5,286046996.3,P
1621066015.3,286046993.9,P
1621066035.2,286046993.3,N
1621066055.9,286046995.4,N
1621066075.7,286046996.0,N
1621066095.6,286046994.9,N
1621066115.4,286046999.5,N
1621066135.2,286046999.2,N
1621066155.1,286046998.5,N
1621066156.0,286046998.5,N
1621066175.8,286046998.3,N
1621066195.7,286046996.9,N
1621066215.5,286046997.6,N
1621066235.3,286046995.9,N
1621066255.2,286046995.4,N
1621066275.0,286046995.4,N
1621066275.9,286046995.4,N
1621066295.7,286046997.8,N
1621066315.6,286046997.3,N
1621066335.4,286046996.0,N
1621066355.3,286046993.9,Y
1621066375.1,286046997.2,P
1621066395.9,286046996.2,P
1621066415.7,286046994.0,P
1621066435.5,286046996.2,Y
1621066455.4,286047001.0,P
1621066475.2,286046998.1,N
1621066495.0,286046999.8,N
1621066495.9,286046999.8,N
1621066515.8,286046999.8,N
1621066535.6,286046998.6,N
1621066555.5,286047001.2,N
1621066575.3,286046998.1,N
1621066595.1,286046999.0,N
1621066615.9,286046999.4,N
1621066635.7,286047000.9,N
1621066655.6,286047000.8,N
1621066675.4,286046998.7,N
1621066695.2,286046998.5,N
1621066715.1,286046999.4,N
1621066716.0,286046999.4,N
1621066735.8,286047000.4,N
1621066755.7,286047000.5,N
1621066775.5,286047000.5,N
1621066795.3,286047000.7,N
1621066815.2,286047001.2,N
1621066835.0,286046998.8,N
1621066835.9,286046998.8,N
1621066855.8,286046996.9,N
1621066875.6,286046997.4,N
1621066895.4,286046999.6,N
1621066915.3,286046995.5,Y
1621066935.1,286046993.8,P
1621066955.9,286046994.8,N
1621066975.7,286046992.1,P
1621066995.5,286046992.4,N
1621067015.4,286046991.9,Y
1621067035.2,286046998.1,P
1621067055.1,286047001.0,N
1621067056.0,286047001.0,N
1621067075.8,286047000.9,N
1621067095.6,286047000.6,N
1621067115.5,286047002.4,N
1621067135.3,286047001.3,N
1621067155.1,286047002.1,N
1621067175.9,286047000.2,N
1621067195.7,286047002.6,N
1621067215.6,286047001.9,N
1621067235.4,286047002.0,N
1621067255.2,286047002.0,N
1621067275.1,286047003.6,N
1621067276.0,286047003.6,N
1621067295.8,286047003.4,N
1621067315.6,286047002.7,N
1621067335.5,286047003.9,N
1621067355.3,286047003.3,N
1621067375.2,286047005.7,N
1621067395.9,286047003.5,N
1621067415.7,286047003.7,N
1621067435.6,286047003.1,N
1621067455.4,286047003.8,N
1621067475.2,286047001.3,N
1621067495.1,286047005.6,N
1621067496.0,286047005.6,N
1621067515.8,286047007.2,Y
1621067535.7,286047004.2,P
1621067555.5,286047002.8,N
1621067575.3,286047002.9,P
1621067595.2,286047004.1,Y
1621067615.0,286046999.7,P
1621067615.9,286046999.7,N
1621067635.8,286047003.2,N
1621067655.6,286047003.6,N
1621067675.6,286047004.6,N
1621067695.4,286047007.2,Y
1621067715.2,286047002.5,P
1621067735.1,286046998.8,P
1621067736.0,286046998.8,N
1621067755.8,286047001.1,N
1621067775.6,286046999.7,N
1621067795.5,286047001.5,N
1621067815.3,286047002.0,N
1621067835.2,286047002.6,N
1621067855.9,286047002.4,N
1621067875.7,286047002.8,N
1621067895.6,286047002.3,N
1621067915.4,286046998.3,N
1621067935.2,286046999.9,N
1621067955.1,286046998.4,N
1621067956.0,286046998.4,N
1621067975.8,286046998.7,N
1621067995.7,286046997.4,N
1621068015.5,286046997.1,N
1621068035.3,286046998.7,N
1621068055.2,286047000.7,N
1621068075.0,286046999.4,N
1621068075.9,286046999.4,N
1621068095.7,286046998.3,N
1621068115.6,286047000.0,N
1621068135.4,286047001.9,N
1621068155.3,286047002.6,N
1621068175.1,286047001.7,N
1621068176.0,286047001.7,N
1621068195.8,286047004.1,N
1621068215.7,286047003.6,N
1621068235.5,286047001.9,N
1621068255.3,286047000.7,N
1621068275.2,286046998.5,N
1621068295.0,286047000.0,N
1621068295.9,286047000.0,N
1621068315.8,286047000.3,N
1621068335.6,286047001.8,N
1621068355.4,286047004.3,N
1621068375.3,286047002.8,N
1621068395.1,286046998.2,N
1621068415.9,286046999.4,N
1621068435.7,286047000.8,N
1621068455.5,286047001.1,N
1621068475.4,286046999.1,N
1621068495.2,286047000.9,N
1621068515.0,286047000.3,N
1621068515.9,286047000.3,N
1621068535.8,286047004.3,N
1621068555.6,286047002.0,N
1621068575.5,286047002.0,N
1621068595.3,286047002.6,N
1621068615.1,286047002.1,N
1621068635.9,286047001.6,N
1621068655.7,286047002.2,N
1621068675.5,286047004.1,N
1621068695.4,286047003.7,N
1621068715.2,286047002.0,N
1621068735.0,286047001.9,N
1621068736.0,286047001.9,N
1621068755.8,286047001.6,N
1621068775.6,286047001.5,N
1621068795.5,286047002.5,N
1621068815.3,286047004.4,N
1621068835.1,286047002.3,N
1621068855.9,286047001.3,N
1621068875.7,286047003.8,N
1621068895.6,286047005.8,Y
1621068915.4,286047001.6,P
1621068935.2,286047003.9,P
1621068955.1,286047002.2,N
1621068956.0,286047002.2,N
1621068975.8,286047002.7,Y
1621068995.6,286046999.4,P
1621069015.5,286047000.8,N
1621069035.3,286047000.8,N
1621069055.2,286047001.1,N
1621069075.9,286046999.5,N
1621069095.7,286046999.1,N
1621069115.6,286046996.5,Y
1621069135.4,286046999.6,P
1621069155.3,286046998.2,P
1621069175.1,286046998.1,N
1621069176.0,286046998.1,N
1621069195.8,286046999.4,N
